Location: Carnetin
(48.9010°N, 2.7059°E)
Time: 18:26:53
(UTC+00:00)

Cosmos 1953 - Pass Details

Date: 24 October 2021
Orbit: 537 x 557 km, 82.5° (Epoch: 07 December)

Event Time Altitude Azimuth Distance (km) Brightness Sun altitude
Rises 17:30:05 0° 192° (SSW) 2,727 6.2 -8.5°
Reaches altitude 10° 17:32:14 10° 193° (SSW) 1,839 5.3 -8.8°
Maximum altitude 17:36:17 77° 279° (W) 578 2.5 -9.5°
Drops below altitude 10° 17:40:23 10° 7° (N) 1,855 4.9 -10.2°
Sets 17:42:34 0° 9° (N) 2,754 5.7 -10.5°
